Location: Unnamed
(47.6264°N, 122.3366°W)
Time: 07:38:24
(UTC-07:00)

X-37B - Pass Details

Date: 22 June 2021
Orbit: 383 x 392 km, 45.0° (Epoch: 01 July)

Event Time Altitude Azimuth Distance (km) Brightness Sun altitude
Exits shadow 02:25:01 16° 122° (ESE) 1,087 2.7 -17.0°
Drops below altitude 10° 02:25:50 10° 117° (ESE) 1,404 3.3 -17.0°
Sets 02:27:57 0° 111° (ESE) 2,258 4.4 -16.9°
